Terminal Aerodrome Forecast
Issued by NWS Raleigh/Durham, NC

Home | Current Version | Previous Version | Text Only | Print | Product List | Glossary On
Versions: 1 2 3 4 5 6 7 8 9 10 11 12 13 14 15 16 17 18 19 20 21 22 23
000
FTUS42 KRAH 242211 AAA
TAFRDU
TAF AMD
KRDU 242211Z 2422/2518 35008KT 5SM TSRA BR BKN040CB BKN080
      TEMPO 2422/2423 VRB18G30KT 2SM +TSRA BR SCT012 BKN025CB
     FM250100 24004KT P6SM BKN100
     FM251100 33005KT P6SM SCT060=

USA.gov is the U.S. government's official web portal to all federal, state and local government web resources and services.